Simultaneous Nadir Overpasses (SNOs) Predictions

Prediction of SNOs between METOP-B and NOAA-19 Satellite Orbit:

Table of predicted SNOs for the next 14.0 days since TLE Epoch: 1/4/2016
Index Date (METOP-B) Time (METOP-B) Lat,Lon (METOP-B) SZA (METOP-B ) Date (NOAA-19) Time (NOAA-19) Lat,Lon (NOAA-19) SZA (NOAA-19 ) Distance(km) Time Diff (sec)
1 01/08/2016 06:08:54 75.63, 86.75 97.87 01/08/2016 06:07:40 75.62, 86.75 97.86 1.96 74
2 01/08/2016 06:59:36 -75.63,-105.94 82.14 01/08/2016 06:58:45 -75.62,-106.05 82.14 2.98 51
3 01/08/2016 07:50:16 75.61, 61.34 97.84 01/08/2016 07:49:42 75.60, 61.28 97.84 1.93 34
4 01/08/2016 08:40:59 -75.56,-131.50 82.22 01/08/2016 08:40:46 -75.57,-131.36 82.21 3.76 13
5 01/08/2016 09:31:38 75.59, 35.93 97.81 01/08/2016 09:31:44 75.59, 35.82 97.81 3.14 6
6 01/08/2016 10:22:21 -75.54,-156.90 82.25 01/08/2016 10:22:48 -75.55,-156.83 82.24 2.56 27
7 01/08/2016 11:13:01 75.52, 10.38 97.74 01/08/2016 11:13:45 75.53, 10.51 97.74 3.65 44
8 01/08/2016 12:03:43 -75.52, 177.69 82.28 01/08/2016 12:04:50 -75.54, 177.71 82.26 2.41 67
9 01/08/2016 12:54:31 75.12, -16.16 97.34 01/08/2016 12:55:39 75.15, -13.78 97.34 67.91 68




NCC Satellite Simultaneous Nadir Overpasses (SNOs) Prediction Service
